Regional Weather Roundup
Issued by NWS Albany, NY

Home | Current Version | Previous Version | Text Only | Print | Product List | Glossary On
Versions: 1 2 3 4 5 6 7 8 9 10 11 12 13 14 15 16 17 18 19 20 21 22 23 24 25 26 27 28 29 30 31 32 33 34 35 36 37 38 39 40 41 42 43 44 45 46 47 48 49 50
000
ASUS41 KALY 290810
RWRALY

NEW YORK STATE HOURLY WEATHER ROUNDUP
NATIONAL WEATHER SERVICE ALBANY NY
300 AM EST SAT NOV 29 2014

NOTE: "FAIR" INDICATES FEW OR NO CLOUDS BELOW 12,000 FEET WITH NO
SIGNIFICANT WEATHER AND/OR NO OBSTRUCTIONS TO VISIBILITY.

NYZ032-033-038>043-046>054-057>066-NYZ062>081-290900-
EAST


CITY           SKY/WX    TMP DP  RH WIND       PRES   REMARKS
ALBANY         PTCLDY    16  11  80 S6        30.27R WCI   7
GLENS FALLS    CLOUDY    13   9  84 CALM      30.24S
POUGHKEEPSIE   PTCLDY    13   8  81 CALM      30.30R
MONTGOMERY     PTCLDY    15  11  83 CALM      30.27R
WHITE PLAINS   CLEAR     24  14  65 W3        30.27R
ISLIP          CLEAR     23  14  68 SW6       30.29R WCI  16
NEW YORK CITY  PTCLDY    29  12  49 W8        30.32R WCI  21
CENTRAL PARK   CLEAR     28  10  46 W6        30.33R WCI  22
$$

NYZ005>009-017-018-044>046-055-056-290900-
CENTRAL


CITY           SKY/WX    TMP DP  RH WIND       PRES   REMARKS
FULTON         CLOUDY    24  15  68 S6        30.22S WCI  17
SYRACUSE       MOCLDY    25  15  66 SW8       30.22S WCI  16
ROME           CLOUDY    22  18  85 E3        30.25S
ELMIRA         CLOUDY    14  11  87 CALM      30.23S
BINGHAMTON     PTCLDY    18   9  68 W5        30.17S WCI  11
MONTICELLO     PTCLDY    14  10  85 W3        30.21F
$$

NYZ026>034-041>043-290900-
NORTH


CITY           SKY/WX    TMP DP  RH WIND       PRES   REMARKS
WATERTOWN      CLOUDY    25  15  66 SE5       30.22S WCI  19
FORT DRUM      NOT AVBL
MASSENA        CLEAR     16  11  80 SW5       30.24R WCI   9
SARANAC LAKE   CLEAR     -1  32 100 CALM      30.11R
PLATTSBURGH    CLEAR     12   9  87 CALM      30.23R
$$

NYZ001>004-010>016-019>021-290900-
WEST


CITY           SKY/WX    TMP DP  RH WIND       PRES   REMARKS
NIAGARA FALLS  CLOUDY    24  20  84 E6        30.16F WCI  17
BUFFALO        CLOUDY    26  17  68 S12       30.17S WCI  16
DUNKIRK        CLOUDY    26  19  74 S12G21    30.17F WCI  16
JAMESTOWN      CLOUDY    19  18  93 S8        30.11F WCI   9
WELLSVILLE     FLURRIES  19  14  81 SE3       30.13S
ROCHESTER      CLOUDY    26  18  71 S6        30.20F WCI  19
PENN YAN       CLOUDY    24  15  68 SW10      30.20S WCI  14
$$

             KEY
       WCI = WIND CHILL INDEX
       VSB = VISIBILITY
       HX  = HEAT INDEX
$$


USA.gov is the U.S. government's official web portal to all federal, state and local government web resources and services.